Preview of NWS' New Version of Forecast
This preview is not operational and should not be used for support decisions.

Regional Weather Roundup (RWR)

Issued by National Weather Service (NWS)

                            
000
ASPQ40 PGUM 180610
RWRPQ 
WEATHER ROUNDUP FOR THE MARIANAS AND MICRONESIA
NATIONAL WEATHER SERVICE TIYAN GU
400 PM CHST TUE JUN 18 2019

GUZ001>004-180700-
MARIANA ISLANDS-
  
CITY           SKY/WX    TMP DP  RH WIND       PRES   REMARKS
GUAM AIRPORT   MOSUNNY   88  73  62 E13       29.83F HX  96           
ANDERSEN AFB   PTSUNNY   84  73  70 E10       29.84S HX  91           
ROTA AIRPORT   MOSUNNY   86  72  62 E14       29.82F HX  92           
TINIAN AP      MOSUNNY   90  73  58 E16       29.81F HX  98           
SAIPAN AP      SUNNY     88  73  62 E13       29.83S HX  96           

$$

PMZ161-180700-
REPUBLIC OF PALAU-
  
CITY           SKY/WX    TMP DP  RH WIND       PRES   REMARKS
KOROR AP       PTSUNNY   86  75  70 E7        29.76F HX  95           
KOROR WSO      NOT AVBL                                               

$$

PMZ171>174-180700-
FEDERATED STATES OF MICRONESIA-
  
CITY           SKY/WX    TMP DP  RH WIND       PRES   REMARKS
YAP AIRPORT    PTSUNNY   88  79  74 E8        29.76F HX 102           
CHUUK AP       CLOUDY    86  79  79 NE7       29.73S HX  99           
POHNPEI AP     NOT AVBL                                               
POHNPEI WSO    CLOUDY    84  77  79 E3        29.77S HX  94           
KOSRAE AP      NOT AVBL                                               

$$

PMZ181-180700-
REPUBLIC OF THE MARSHALL ISLANDS-
  
CITY           SKY/WX    TMP DP  RH WIND       PRES   REMARKS
KWAJALEIN AP   MOSUNNY   84  75  74 NE14      29.78R HX  92           
MAJURO AP      PTSUNNY   86  77  74 NE17      29.77  HX  97           
MAJURO WSO     MOSUNNY   84  77  79 E7        29.75R HX  94           

$$